Location: Karlsruhe
(49.0131°N, 8.3874°E)
Time: 03:10:20
(UTC+01:00)

ISS - Pass Details

Date: 17 November 2017
Orbit: 402 x 407 km, 51.6° (Epoch: 24 November)

Event Time Altitude Azimuth Distance (km) Brightness Sun altitude
Exits shadow 06:21:00 10° 231° (SW) 1,436 -1.4 -12.7°
Maximum altitude 06:21:19 10° 226° (SW) 1,429 -1.4 -12.7°
Drops below altitude 10° 06:21:53 10° 216° (SW) 1,450 -1.2 -12.6°
Sets 06:25:33 0° 172° (S) 2,302 0.3 -12.0°
